Location: Caltech
(34.1382°N, 118.1253°W)
Time: 01:31:00
(UTC-07:00)

Hamsat - Visible Passes

Search period start: 26 October 2014 00:00
Search period end: 04 November 2014 23:00
Orbit: 592 x 629 km, 97.6° (Epoch: 25 October)

Date Brightness Start Highest point End Pass type
(mag) Time Alt. Az. Time Alt. Az. Time Alt. Az.
27 Oct ? 05:32:29 10° ENE 05:34:05 12° E 05:35:41 10° ESE visible
28 Oct ? 05:45:35 10° NE 05:48:28 18° E 05:51:22 10° SE visible
29 Oct ? 05:59:16 10° NE 06:02:50 26° E 06:06:25 10° SSE visible
29 Oct ? 18:24:04 10° S 18:28:05 44° W 18:32:05 10° NNW visible
30 Oct ? 06:13:11 10° NNE 06:17:09 39° E 06:21:08 10° SSE visible
30 Oct ? 18:38:44 10° SSW 18:42:23 29° W 18:46:03 10° NW visible
31 Oct ? 06:27:15 10° NNE 06:31:26 60° E 06:35:39 10° S visible
31 Oct ? 18:53:39 10° SW 18:56:43 20° W 18:59:47 10° NW visible
01 Nov ? 06:41:27 10° N 06:45:41 88° WNW 06:49:57 10° SSW visible
01 Nov ? 19:09:03 10° WSW 19:11:03 13° W 19:13:04 10° WNW visible
03 Nov ? 04:35:49 10° ENE 04:38:02 14° E 04:40:16 10° SE visible
04 Nov ? 04:49:09 10° NE 04:52:21 21° E 04:55:34 10° SE visible
